Tracking 19827 objects as of 21-Aug-2019
HD Live streaming from Space Station
objects crossing your sky now

FENGYUN 1C DEB

Track FENGYUN 1C DEB now!
10-day predictions


NORAD ID: 31756
Int'l Code: 1999-025CFF
Perigee: 778.2 km
Apogee: 866.4 km
Inclination: 99.3 °
Period: 101.2 minutes
Semi major axis: 7193 km
RCS: 0.0132 m2 (small)
Launch date: May 10, 1999
Source: People's Republic of China (PRC)
Launch site: Taiyaun Space Center, China (TSC)

Note: This is SATELLITE DEBRIS
aabbcc
Your satellite tracking list
Your tracking list is empty




NASA's NSSDC Master Catalog

Two Line Element Set (TLE):
1 31756U 99025CFF 19232.63083375  .00000681  00000-0  31843-3 0  9996
2 31756  99.3453 163.6575 0061276 292.3097  67.1590 14.23010756635421
Source of the keplerian elements: AFSPC